Regional Weather Roundup
Issued by NWS San Diego, CA

Home | Current Version | Previous Version | Text Only | Print | Product List | Glossary On
Versions: 1 2 3 4 5 6 7 8 9 10 11 12 13 14 15 16 17 18 19 20 21 22 23 24 25 26 27
000
ASUS46 KSGX 290311
RWRSGX

SAN DIEGO HOURLY WEATHER ROUNDUP
NATIONAL WEATHER SERVICE SAN DIEGO CA
800 PM PDT THU APR 28 2016

NOTE: "FAIR" INDICATES FEW OR NO CLOUDS BELOW 12,000 FEET WITH NO
SIGNIFICANT WEATHER AND/OR OBSTRUCTIONS TO VISIBILITY.

CAZ042-043-060-061-PZZ750-775-290400-

GREATER SAN DIEGO AREA

CITY           SKY/WX    TMP DP  RH WIND       PRES   REMARKS
LINDBERGH FLD  MOCLDY    61  50  67 W9        29.95R
POINT LOMA       N/A     57  54  90 W8          N/A
NATIONAL CITY    N/A     60  52  74 SW3       29.95R
CHULA VISTA      N/A     59  52  78 W6        29.85S
IMPERIAL BEACH MOCLDY    61  50  67 SW7       29.95R
BROWN FIELD    PTCLDY    55  48  77 W8        29.93R
MIRAMAR MCAS   PTCLDY    58  47  66 SW5       29.93R
MONTGOMERY FLD MOCLDY    58  48  69 W7        29.93R

$$

NORTH SAN DIEGO COUNTY

CITY           SKY/WX    TMP DP  RH WIND       PRES   REMARKS
CAMP PENDLETON PTCLDY    58  51  78 SW5       29.92R
OCEANSIDE AP   PTCLDY    59  48  67 SW6       29.91R
OCEANSIDE HBR    N/A     60  53  78 SW6       29.94R
VISTA            N/A     58  50  77 CALM      29.91R
CARLSBAD       MOCLDY    59  50  72 SW7       29.92R
DEL MAR          N/A     58  52  79 SW2       29.96R
LA JOLLA SCRIP   N/A     58  52  80 S5        29.93R
FALLBROOK        N/A     57  52  82 CALM      29.90R
SAN MARCOS       N/A     57  47  69 W5        29.91R
POWAY            N/A     57  50  76 CALM      29.95R

$$

EAST SAN DIEGO COUNTY

CITY           SKY/WX    TMP DP  RH WIND       PRES   REMARKS
RAMONA         CLOUDY    51  45  79 NW6       29.92R
SANTEE LAKES     N/A     57  50  76 CALM      29.93R
LA MESA          N/A     56  48  76 CALM      29.87R
JAMUL            N/A     55  48  78 CALM      29.93R
DESCANSO N       N/A     47  44  89 CALM      29.84R
MT. LAGUNA OBS   N/A     37  37 100 W16       29.51  WCI  27
CAMPO            N/A     49  44  83 SW12      29.87R

$$

ORANGE COUNTY AND THE LOS ANGELES BASIN

CITY           SKY/WX    TMP DP  RH WIND       PRES   REMARKS
JOHN WAYNE AP  PTCLDY    59  51  75 S7        29.90R
LAKE FOREST FR   N/A     57  44  60 CALM      29.80R
HUNTINGTON BCH   N/A     59  54  84 SW5       29.91S
FULLERTON      CLEAR     61  50  67 S6        29.88R
LONG BEACH     CLEAR     60  52  74 S9        29.89R
L.A. AP        PTCLDY    59  51  75 W9        29.89R
L.A. DOWNTOWN  CLEAR     59  50  72 W3        29.88R

$$

THE INLAND EMPIRE

CITY           SKY/WX    TMP DP  RH WIND       PRES   REMARKS
CORONA         CLEAR     60  44  55 W6        29.89R
CHINO          PTCLDY    60  42  51 W12       29.90R
ONTARIO        PTCLDY    60  41  49 SW13      29.88R
SAN BERNARDINO PTCLDY    63  41  45 W10       29.89R
RIVERSIDE AP   CLEAR     61  43  51 W5        29.89R
MORENO VALLEY    N/A     59  49  71 W5        28.01R
HORSETHIEF CYN   N/A     59  41  52 CALM      29.92R
PERRIS           N/A     58  48  69 S5          N/A
HEMET EAST       N/A     55  45  69 CALM      29.78S
FRENCH VALLEY  MOCLDY    55  45  67 SW12      29.91R
TEMECULA         N/A     58  50  75 SW3       29.87R

$$

SAN BERNARDINO AND RIVERSIDE COUNTY MOUNTAINS

CITY           SKY/WX    TMP DP  RH WIND       PRES   REMARKS
BIG BEAR AP    CLEAR     36  32  87 W8        29.93R WCI  29
PINE COVE        N/A     37  37  99 N3        29.95R

$$

SOUTHERN DESERT INCLUDING THE COACHELLA VALLEY

CITY           SKY/WX    TMP DP  RH WIND       PRES   REMARKS
PALM SPRINGS   PTCLDY    73  35  25 NW20G30   29.73R
THOUSAND PALMS   N/A     69  43  38 NW17      29.72R
PALM DESERT      N/A     73  39  29 CALM      29.31S
THERMAL        CLEAR     72  41  32 NW13G28   29.72R
BLYTHE         MOCLDY    73  40  30 SW16      29.71R
IMPERIAL AP    CLEAR     69  41  36 W14       29.74R
EL CENTRO NAS  PTCLDY    68  40  35 W20       29.77R
YUMA AZ        PTCLDY    69  42  37 W8        29.75R
MEXICALI       CLEAR     72  37  28 W18       29.76R

$$

UPPER DESERT

CITY           SKY/WX    TMP DP  RH WIND       PRES   REMARKS
VICTORVILLE AP CLEAR     57  34  41 W20G28    29.85R
HESPERIA         N/A     53  41  63 W9        29.98R
PALMDALE       CLEAR     56  37  49 W21       29.87R
LANCASTER      CLEAR     58  35  42 W16G26    29.85R
DAGGETT        CLEAR     64  35  34 SW22      29.78R
29 PALMS N     PTCLDY    64  33  31 W24G32    29.84R
NEEDLES        PTCLDY    67  49  52 SW8       29.72R

$$

REGIONAL REPORTS

CITY           SKY/WX    TMP DP  RH WIND       PRES   REMARKS
SANTA BARBARA  CLEAR     62  47  57 N24G32    29.85R
SANDBERG       CLEAR     47  38  71 NW31G39   29.90F
LAS VEGAS NV   CLOUDY    57  49  74 NW3       29.74R
PHOENIX AZ     PTCLDY    72  28  19 W12       29.71R
TIJUANA        PTCLDY    57  46  67 W10       29.95R
ENSENADA NW      N/A     59  32  35 W3        29.92R

$$

OFFSHORE ISLANDS

CITY           SKY/WX    TMP DP  RH WIND       PRES   REMARKS
CATALINA ARPT  CLOUDY    51  48  89 W13       29.91R FOG
SAN NICOLAS IS CLOUDY   N/A N/A N/A NW36G45   29.90R

$$

MARINE AND OFFSHORE BUOY REPORTS

STATION/POSITION SKY/WX   TEMP    WIND        PRES    SWELL
                          AIR SEA DIR/SP/G            HT/PER/DIR
                          (F)     (DEG/KT/KT) (MB)    (FT/S/D)
OCEANSIDE OFFSHR              64                N/A     2/270/11
TORREY PINES OTR              64                N/A     2/200/17
LA JOLLA 1                    65              1012.9R
SAN DIEGO BAY                 68              1013.4R
POINT LOMA SOUTH              63                N/A     3/290/11

$$





USA.gov is the U.S. government's official web portal to all federal, state and local government web resources and services.